Location: Chariton
(41.0140°N, 93.3060°W)
Time: 17:37:51
(UTC-06:00)

Tiangong 1 - Visible Passes

Search period start: 12 December 2017 00:00
Search period end: 22 December 2017 00:00
Orbit: 276 x 303 km, 42.8° (Epoch: 12 December)

Date Brightness Start Highest point End Pass type
(mag) Time Alt. Az. Time Alt. Az. Time Alt. Az.
19 Dec 3.4 06:10:37 10° SSW 06:12:21 17° SSE 06:14:05 10° ESE visible
20 Dec 2.3 06:14:03 13° SW 06:15:57 29° SSE 06:18:14 10° E visible
21 Dec 1.1 06:18:09 22° SW 06:19:31 53° SSE 06:21:59 10° E visible
